Radiation Dose at Monitoring Post of Fukushima Daini Nuclear Power Station
Date,Time,MP-1(microSv/h),MP-2(microSv/h),MP-3(microSv/h),MP-4(microSv/h),MP-5(microSv/h),MP-6(microSv/h),MP-7(microSv/h),Wind Direction,Wind Velocity(m/s),Rain
2019/12/21,00:00,0.187,0.167,0.286,0.266,0.257,0.143,0.088,north,1.2,No
2019/12/21,00:10,0.187,0.167,0.287,0.265,0.257,0.144,0.089,northeast,1.1,No
2019/12/21,00:20,0.187,0.168,0.286,0.266,0.258,0.143,0.089,north,1.6,No
2019/12/21,00:30,0.186,0.168,0.285,0.265,0.258,0.144,0.088,north-northwest,0.8,No
2019/12/21,00:40,0.188,0.167,0.286,0.264,0.257,0.144,0.089,north-northwest,1.8,No
2019/12/21,00:50,0.186,0.168,0.286,0.264,0.257,0.144,0.089,north-northwest,2.6,No
2019/12/21,01:00,0.186,0.167,0.286,0.266,0.257,0.144,0.089,north-northwest,3.8,No
2019/12/21,01:10,0.186,0.168,0.286,0.266,0.257,0.144,0.089,north-northwest,3.2,No
2019/12/21,01:20,0.188,0.168,0.286,0.266,0.258,0.144,0.089,north-northwest,3.1,No
2019/12/21,01:30,0.187,0.167,0.287,0.266,0.257,0.143,0.089,north-northwest,3.5,No
2019/12/21,01:40,0.186,0.168,0.286,0.266,0.258,0.144,0.089,northwest,2.9,No
2019/12/21,01:50,0.187,0.167,0.286,0.265,0.257,0.144,0.089,northwest,2.8,No
2019/12/21,02:00,0.187,0.168,0.286,0.266,0.257,0.144,0.089,northwest,2.3,No
2019/12/21,02:10,0.186,0.168,0.287,0.266,0.258,0.144,0.089,northwest,1.6,No
2019/12/21,02:20,0.186,0.167,0.286,0.265,0.257,0.143,0.088,northwest,1.7,No
2019/12/21,02:30,0.186,0.167,0.287,0.266,0.257,0.144,0.088,northwest,1.7,No
2019/12/21,02:40,0.187,0.167,0.286,0.265,0.257,0.143,0.089,north-northwest,1.4,No
2019/12/21,02:50,0.186,0.168,0.286,0.265,0.257,0.143,0.088,north-northwest,2.8,No
2019/12/21,03:00,0.188,0.168,0.286,0.266,0.258,0.143,0.089,north,2.8,No
2019/12/21,03:10,0.187,0.167,0.286,0.265,0.257,0.143,0.089,north-northwest,4.0,No
2019/12/21,03:20,0.186,0.167,0.286,0.265,0.256,0.144,0.089,north-northwest,2.8,No
2019/12/21,03:30,0.186,0.168,0.286,0.264,0.257,0.144,0.089,north,3.5,No
2019/12/21,03:40,0.187,0.167,0.287,0.264,0.257,0.143,0.089,north-northwest,4.1,No
2019/12/21,03:50,0.186,0.167,0.285,0.265,0.257,0.144,0.090,north-northwest,3.9,No
2019/12/21,04:00,0.186,0.167,0.286,0.265,0.258,0.144,0.089,north,4.4,No
2019/12/21,04:10,0.187,0.168,0.286,0.266,0.256,0.143,0.089,north,4.2,No
2019/12/21,04:20,0.187,0.168,0.286,0.265,0.258,0.144,0.089,north,3.7,No
2019/12/21,04:30,0.187,0.167,0.286,0.266,0.257,0.142,0.089,north,4.2,No
2019/12/21,04:40,0.186,0.168,0.284,0.267,0.257,0.143,0.088,north,3.8,No
2019/12/21,04:50,0.186,0.167,0.285,0.266,0.257,0.144,0.088,northwest,4.0,No
2019/12/21,05:00,0.187,0.167,0.287,0.263,0.259,0.144,0.088,north-northwest,4.3,No
2019/12/21,05:10,0.187,0.168,0.286,0.266,0.256,0.143,0.089,north,3.9,No
2019/12/21,05:20,0.186,0.168,0.285,0.265,0.257,0.144,0.088,north,3.3,No
2019/12/21,05:30,0.187,0.167,0.284,0.266,0.257,0.143,0.088,north,3.5,No
2019/12/21,05:40,0.187,0.168,0.287,0.265,0.258,0.143,0.089,north-northwest,3.7,No
2019/12/21,05:50,0.186,0.167,0.286,0.265,0.257,0.143,0.088,northwest,3.7,No
2019/12/21,06:00,0.185,0.168,0.285,0.266,0.257,0.144,0.089,north-northwest,3.7,No
2019/12/21,06:10,0.187,0.167,0.285,0.266,0.257,0.143,0.089,north-northwest,3.6,No
2019/12/21,06:20,0.187,0.168,0.286,0.264,0.257,0.144,0.089,north,3.7,No
2019/12/21,06:30,0.187,0.168,0.285,0.265,0.256,0.143,0.088,north,2.7,No
2019/12/21,06:40,0.185,0.167,0.284,0.265,0.257,0.144,0.089,north,2.8,No
2019/12/21,06:50,0.187,0.167,0.285,0.266,0.257,0.143,0.088,north,2.0,No
2019/12/21,07:00,0.188,0.168,0.287,0.264,0.257,0.144,0.089,north,2.6,No
2019/12/21,07:10,0.186,0.167,0.285,0.263,0.256,0.144,0.088,north-northwest,2.5,No
2019/12/21,07:20,0.187,0.167,0.286,0.265,0.257,0.143,0.088,north-northwest,1.6,No
2019/12/21,07:30,0.187,0.166,0.285,0.265,0.257,0.144,0.088,north,2.2,No
2019/12/21,07:40,0.186,0.167,0.286,0.265,0.256,0.143,0.089,northwest,2.1,No
2019/12/21,07:50,0.186,0.168,0.286,0.264,0.256,0.144,0.088,northwest,2.5,No
2019/12/21,08:00,0.186,0.167,0.285,0.266,0.257,0.143,0.088,northwest,2.7,No
2019/12/21,08:10,0.185,0.167,0.286,0.265,0.258,0.144,0.088,northwest,2.9,No
2019/12/21,08:20,0.186,0.166,0.287,0.265,0.257,0.144,0.088,west-northwest,2.6,No
2019/12/21,08:30,0.186,0.167,0.285,0.264,0.257,0.143,0.088,west,2.7,No
2019/12/21,08:40,0.187,0.167,0.285,0.264,0.257,0.143,0.088,west,1.7,No
2019/12/21,08:50,0.186,0.168,0.286,0.264,0.257,0.144,0.088,west,1.6,No
2019/12/21,09:00,0.185,0.167,0.285,0.265,0.257,0.143,0.088,west,2.0,No
2019/12/21,09:10,0.186,0.167,0.286,0.264,0.258,0.143,0.087,west-southwest,2.2,No
2019/12/21,09:20,0.186,0.168,0.284,0.265,0.257,0.144,0.089,southwest,1.9,No
2019/12/21,09:30,0.186,0.166,0.285,0.265,0.257,0.144,0.088,southwest,1.8,No
2019/12/21,09:40,0.186,0.168,0.286,0.264,0.259,0.144,0.088,southwest,1.8,No
2019/12/21,09:50,0.186,0.168,0.285,0.264,0.257,0.143,0.088,south-southwest,2.1,No
2019/12/21,10:00,0.187,0.167,0.284,0.266,0.257,0.144,0.088,south,1.7,No
2019/12/21,10:10,0.185,0.166,0.284,0.265,0.258,0.144,0.088,southwest,2.1,No
2019/12/21,10:20,0.186,0.168,0.284,0.264,0.257,0.143,0.088,south-southwest,1.7,No
2019/12/21,10:30,0.186,0.167,0.285,0.267,0.257,0.143,0.089,southwest,1.6,No
2019/12/21,10:40,0.186,0.167,0.285,0.266,0.258,0.143,0.088,south-southwest,1.4,No
2019/12/21,10:50,0.186,0.167,0.285,0.265,0.256,0.143,0.088,south-southwest,1.7,No
2019/12/21,11:00,0.186,0.167,0.286,0.265,0.259,0.142,0.088,south-southwest,1.2,No
2019/12/21,11:10,0.187,0.168,0.284,0.265,0.257,0.142,0.089,southwest,1.1,No
2019/12/21,11:20,0.186,0.167,0.286,0.264,0.257,0.143,0.088,southwest,1.3,No
2019/12/21,11:30,0.186,0.166,0.285,0.265,0.258,0.144,0.088,south-southwest,1.8,Yes
2019/12/21,11:40,0.186,0.167,0.285,0.264,0.258,0.144,0.088,southwest,1.5,No
2019/12/21,11:50,0.186,0.167,0.285,0.266,0.257,0.144,0.088,southwest,1.3,No
2019/12/21,12:00,0.186,0.168,0.285,0.266,0.259,0.145,0.088,south-southeast,1.8,Yes
2019/12/21,12:10,0.186,0.168,0.286,0.266,0.258,0.143,0.089,south,1.0,Yes
2019/12/21,12:20,0.186,0.167,0.284,0.266,0.256,0.145,0.089,south-southeast,1.9,No
2019/12/21,12:30,0.186,0.167,0.285,0.266,0.258,0.144,0.089,south-southwest,1.4,No
2019/12/21,12:40,0.186,0.166,0.286,0.265,0.257,0.145,0.089,-,CALM,No
2019/12/21,12:50,0.187,0.168,0.286,0.264,0.257,0.144,0.089,south-southeast,0.6,No
2019/12/21,13:00,0.186,0.168,0.285,0.265,0.260,0.144,0.089,south-southwest,1.5,No
2019/12/21,13:10,0.186,0.167,0.285,0.266,0.257,0.143,0.088,southeast,1.4,No
2019/12/21,13:20,0.186,0.169,0.285,0.265,0.257,0.143,0.089,south-southeast,1.7,No
2019/12/21,13:30,0.186,0.167,0.283,0.264,0.258,0.144,0.089,south-southeast,1.3,No
2019/12/21,13:40,0.186,0.167,0.284,0.266,0.256,0.143,0.088,south-southeast,1.7,No
2019/12/21,13:50,0.185,0.168,0.285,0.266,0.257,0.143,0.088,south,2.1,No
2019/12/21,14:00,0.186,0.167,0.284,0.264,0.256,0.144,0.088,south-southeast,1.6,No
2019/12/21,14:10,0.186,0.167,0.286,0.265,0.257,0.144,0.089,southeast,1.9,No
2019/12/21,14:20,0.185,0.167,0.285,0.265,0.258,0.143,0.088,southeast,2.5,No
2019/12/21,14:30,0.186,0.167,0.285,0.265,0.258,0.144,0.088,south-southeast,2.7,No
2019/12/21,14:40,0.186,0.167,0.284,0.264,0.258,0.144,0.088,southeast,3.3,No
2019/12/21,14:50,0.185,0.168,0.286,0.265,0.257,0.144,0.088,south-southeast,2.9,No
2019/12/21,15:00,0.185,0.166,0.284,0.264,0.258,0.142,0.088,south,3.0,No
2019/12/21,15:10,0.186,0.167,0.285,0.265,0.259,0.143,0.088,south,3.7,No
2019/12/21,15:20,0.185,0.168,0.285,0.265,0.258,0.143,0.088,south,2.9,No
2019/12/21,15:30,0.186,0.167,0.284,0.266,0.256,0.143,0.088,south,4.5,No
2019/12/21,15:40,0.186,0.167,0.284,0.264,0.258,0.144,0.088,south,4.6,No
2019/12/21,15:50,0.185,0.167,0.285,0.264,0.258,0.143,0.089,south,4.9,No
2019/12/21,16:00,0.185,0.167,0.285,0.265,0.256,0.143,0.088,south,4.5,No
2019/12/21,16:10,0.185,0.167,0.284,0.265,0.256,0.143,0.087,south,4.8,No
2019/12/21,16:20,0.185,0.168,0.286,0.264,0.257,0.144,0.087,south-southwest,5.8,No
2019/12/21,16:30,0.186,0.167,0.287,0.266,0.257,0.143,0.088,south-southwest,7.0,No
2019/12/21,16:40,0.186,0.167,0.286,0.265,0.257,0.143,0.088,south-southwest,7.7,No
2019/12/21,16:50,0.186,0.167,0.284,0.265,0.257,0.143,0.087,south-southwest,7.9,No
2019/12/21,17:00,0.185,0.167,0.286,0.266,0.258,0.143,0.088,south-southwest,8.4,No
2019/12/21,17:10,0.186,0.167,0.286,0.264,0.257,0.143,0.088,south-southwest,8.8,No
2019/12/21,17:20,0.186,0.167,0.285,0.266,0.257,0.144,0.088,south-southwest,8.4,No
2019/12/21,17:30,0.186,0.167,0.285,0.265,0.258,0.144,0.088,south-southwest,8.8,No
2019/12/21,17:40,0.186,0.168,0.286,0.266,0.255,0.144,0.088,south-southwest,8.1,No
2019/12/21,17:50,0.187,0.167,0.285,0.265,0.256,0.144,0.088,south-southwest,6.6,No
2019/12/21,18:00,0.186,0.168,0.285,0.265,0.257,0.143,0.088,south-southwest,6.4,No
2019/12/21,18:10,0.186,0.167,0.286,0.266,0.259,0.144,0.089,south-southwest,6.3,No
2019/12/21,18:20,0.185,0.167,0.286,0.266,0.257,0.142,0.088,south-southwest,6.5,No
2019/12/21,18:30,0.186,0.167,0.285,0.265,0.258,0.143,0.088,south-southwest,7.0,No
2019/12/21,18:40,0.186,0.167,0.286,0.266,0.257,0.145,0.088,south-southwest,5.9,No
2019/12/21,18:50,0.185,0.167,0.285,0.267,0.258,0.144,0.089,south-southwest,5.3,No
2019/12/21,19:00,0.187,0.167,0.286,0.265,0.256,0.145,0.088,south-southwest,6.4,No
2019/12/21,19:10,0.186,0.167,0.285,0.265,0.257,0.144,0.088,southwest,6.5,No
2019/12/21,19:20,0.187,0.168,0.286,0.267,0.258,0.144,0.088,southwest,7.0,No
2019/12/21,19:30,0.186,0.168,0.285,0.266,0.257,0.144,0.088,southwest,7.1,No
2019/12/21,19:40,0.186,0.167,0.287,0.265,0.258,0.145,0.088,south-southwest,6.1,No
2019/12/21,19:50,0.186,0.168,0.287,0.267,0.257,0.144,0.089,southwest,6.0,No
2019/12/21,20:00,0.187,0.168,0.286,0.266,0.259,0.143,0.089,southwest,5.6,No
2019/12/21,20:10,0.186,0.168,0.286,0.265,0.257,0.144,0.089,southwest,5.6,No
2019/12/21,20:20,0.185,0.167,0.286,0.267,0.257,0.144,0.088,southwest,7.4,No
2019/12/21,20:30,0.187,0.168,0.285,0.264,0.257,0.144,0.088,southwest,7.6,No
2019/12/21,20:40,0.187,0.167,0.285,0.266,0.258,0.144,0.089,southwest,8.1,No
2019/12/21,20:50,0.185,0.167,0.285,0.266,0.258,0.144,0.089,southwest,7.3,No
2019/12/21,21:00,0.186,0.167,0.285,0.266,0.258,0.144,0.088,south-southwest,7.7,No
2019/12/21,21:10,0.187,0.169,0.285,0.264,0.258,0.145,0.089,south-southwest,8.1,No
2019/12/21,21:20,0.187,0.168,0.285,0.265,0.257,0.144,0.089,south-southwest,6.8,No
2019/12/21,21:30,0.186,0.168,0.286,0.266,0.258,0.144,0.088,south-southwest,6.4,No
2019/12/21,21:40,0.186,0.167,0.286,0.266,0.258,0.144,0.089,south-southwest,6.3,No
2019/12/21,21:50,0.186,0.166,0.286,0.264,0.257,0.144,0.088,south-southwest,6.3,No
2019/12/21,22:00,0.187,0.167,0.285,0.266,0.257,0.144,0.088,south-southwest,5.6,No
2019/12/21,22:10,0.185,0.167,0.285,0.265,0.257,0.142,0.088,south-southwest,4.6,No
2019/12/21,22:20,0.187,0.167,0.286,0.266,0.259,0.144,0.088,south-southwest,3.9,No
2019/12/21,22:30,0.186,0.167,0.287,0.266,0.257,0.144,0.088,south-southwest,3.5,No
2019/12/21,22:40,0.186,0.166,0.285,0.265,0.257,0.144,0.088,south-southwest,2.9,No
2019/12/21,22:50,0.187,0.168,0.285,0.266,0.258,0.143,0.089,south,2.8,No
2019/12/21,23:00,0.187,0.169,0.286,0.266,0.258,0.144,0.089,south,3.2,No
2019/12/21,23:10,0.186,0.167,0.286,0.267,0.258,0.144,0.089,south,2.8,No
2019/12/21,23:20,0.186,0.167,0.285,0.265,0.257,0.144,0.089,south-southwest,3.2,No
2019/12/21,23:30,0.187,0.168,0.286,0.266,0.258,0.144,0.089,south-southwest,3.5,No
2019/12/21,23:40,0.187,0.168,0.285,0.266,0.257,0.143,0.089,south,3.4,No
2019/12/21,23:50,0.186,0.167,0.285,0.266,0.258,0.144,0.088,south,3.2,No
